Location: Kapla
(46.2483°N, 15.0094°E)
Time: 12:26:14
(UTC+00:00)

Nadezhda 3 Rocket - Pass Details

Date: 29 June 2021
Orbit: 958 x 998 km, 82.9° (Epoch: 26 July)

Event Time Altitude Azimuth Distance (km) Brightness Sun altitude
Rises 02:11:04 0° 6° (N) 3,703 8.0 -8.6°
Reaches altitude 10° 02:15:54 10° 39° (NE) 2,759 8.1 -8.0°
Maximum altitude 02:17:50 11° 57° (ENE) 2,657 7.8 -7.8°
Drops below altitude 10° 02:19:47 10° 75° (ENE) 2,761 7.4 -7.6°
Sets 02:24:36 0° 108° (ESE) 3,710 7.4 -7.0°
